Home   Weather   Maputo   Past weeks

Flag for Mozambique Past Weather in Maputo, Mozambique — Yesterday and Last 2 Weeks

Now
75 °F

Partly sunny.


Feels Like: 77 °F
Forecast: 62 / 70 °F
Wind: 6 mph from East

Location: Maputo / Mavalane

Current Time: Oct 1, 2016 at 3:55:02 PM

Latest Report: Oct 1, 2016 at 3:00 PM


Visibility: N/A

Pressure: 29.89 "Hg

Humidity: 74%

Dew Point: 66 °F

Location of MaputoLocation

Past Weather in Maputo — Graph

°F

Maputo Temperature Yesterday

Maximum temperature yesterday: 82 °F (at 2:00 PM)
Minimum temperature yesterday: 68 °F (at 5:00 AM)
Average temperature yesterday: 75 °F

High & Low Weather Summary for the Past Weeks

 TemperatureHumidityPressure
High102 °F (Sep 22, 3:00 PM)94% (Sep 20, 5:00 AM)30.39 "Hg (Sep 20, 5:00 AM)
Low57 °F (Sep 18, 8:00 PM)17% (Sep 22, 3:00 PM)29.68 "Hg (Sep 16, 2:00 PM)
Average74 °F69%30.06 "Hg
* Reported Sep 16 2:00 PM — Oct 1 2:00 PM, Maputo, Weather by CustomWeather, © 2016

Note: Actual official high and low records may vary slightly from our data, if they occured in-between our weather recording intervals... More about our weather records

Advertising

Maputo Weather History for the Previous 24 Hours

Scroll right to see more
 ConditionsComfort  
Time TempWeatherWind HumidityBarometerVisibility
2:00 PM
Sat, Oct 1
75 °FPartly sunny.7 mph69%29.92 "HgN/A
1:00 PM79 °FPartly sunny.9 mph65%29.92 "HgN/A
12:00 PM77 °FPartly sunny.13 mph69%29.95 "HgN/A
11:00 AM73 °FScattered clouds.12 mph74%29.98 "HgN/A
10:00 AM72 °FDrizzle. Partly sunny.12 mph78%30.01 "Hg5 mi
9:00 AM70 °FPartly sunny.13 mph78%30.04 "HgN/A
8:00 AM68 °FPartly sunny.12 mph78%30.01 "HgN/A
7:00 AM66 °FPartly sunny.7 mph83%30.04 "HgN/A
6:00 AM66 °FPartly sunny.8 mph83%30.01 "HgN/A
5:00 AM66 °FPassing clouds.10 mph83%29.98 "HgN/A
2:00 AM68 °FPassing clouds.10 mph94%29.98 "HgN/A
1:00 AM70 °FPassing clouds.13 mph94%29.98 "HgN/A
12:00 AM73 °FPassing clouds.17 mph89%29.98 "HgN/A
11:00 PM
Fri, Sep 30
73 °FPassing clouds.20 mph94%29.95 "HgN/A
9:00 PM73 °FStrong thunderstorms. Mostly cloudy.16 mph94%30.01 "Hg2 mi
8:00 PM75 °FPassing clouds.17 mph89%29.95 "HgN/A
7:00 PM75 °FPassing clouds.14 mph89%29.89 "HgN/A
6:00 PM75 °FPassing clouds.13 mph83%29.89 "HgN/A
5:00 PM75 °FPartly sunny.12 mph89%29.92 "HgN/A
4:10 PM79 °FScattered clouds.12 mph70%29.89 "HgN/A
3:10 PM81 °FScattered clouds.14 mph66%29.92 "HgN/A
Weather by CustomWeather, © 2016

See weather overviewHow to use our weather pages